Tracking 29892 objects as of 21-Nov-2024
HD Live streaming from Space Station
objects crossing your sky now

OBJECT X

Track OBJECT X now!
10-day predictions


NORAD ID: 51845
Int'l Code: 2022-019X
Perigee: 412.0 km
Apogee: 421.0 km
Inclination: 97.4 °
Period: 92.8 minutes
Semi major axis: 6787 km
RCS: Unknown
Launch date: February 27, 2022
Source: People's Republic of China (PRC)
Launch site: Wenchang Satellite Launch Center (WSC)
Your satellite tracking list
Your tracking list is empty




NASA's NSSDC Master Catalog

Two Line Element Set (TLE):
1 51845U 22019X   24326.16478825  .00088989  00000-0  14380-2 0  9995
2 51845  97.4110  44.5290 0006590  19.6353 340.5152 15.52529101151613
Source of the keplerian elements: AFSPC